User: anonymous
Location: M.A.R.S.Observatory
(35.4031°N, 81.5481°W)
Time: 20:39:40
(UTC-04:00)
Language:

SL-8 R/B - Orbit

View from above orbital plane
View from above orbital plane
View from above satellite
View from above satellite

Ground track
Ground track

The orbit data is extracted from the following two-line orbital elements,

1 33066U 08031G   14109.11251146  .00000775  00000-0  16461-3 0  7590
2 33066 048.4428 110.8064 0008432 275.9397 119.0236 14.68754176312916
Epoch (UTC): 19 April 2014 02:42:00
Eccentricity: 0.0008432
inclination: 48.4428°
perigee height: 659 km
apogee height: 671 km
right ascension of ascending node: 110.8064°
argument of perigee: 275.9397°
revolutions per day: 14.68754176
mean anomaly at epoch: 119.0236°
orbit number at epoch: 31291

The dashed part of the orbit path shows where the satellite is in the earth's shadow,  

DLR